Volver al catálogo

STARLINK-36557

ActivoComunicacionesVLEO
NORAD 67500·PAYLOAD·🇺🇸 United States

Lanzado Jan 18, 2026 desde Cape Canaveral Space Force Station

Loading…

Próximos Pases (próximas 24 horas)

TLE

ActualizadoSource: CelesTrak SupGP

Época: Sep 14, 2026, 21:25 UTC

1 67500C 26012H   26257.89284722 -.00022500  00000+0 -81495-3 0  2570
2 67500  43.0015 325.9179 0001550 267.5527 236.2945 15.27589524    14

Sigue STARLINK-36557 en tiempo real con AllMySat

Download on the App Store